Location: Clyde
(45.1830°S, 169.3170°E)
Time: 00:24:08
(UTC+13:00)

SL-16 R/B - Pass Details

Date: 24 January 2019
Orbit: 842 x 846 km, 71.0° (Epoch: 22 February)

Event Time Altitude Azimuth Distance (km) Brightness Sun altitude
Rises 22:38:03 0° 334° (NNW) 3,401 5.2 -11.6°
Reaches altitude 10° 22:40:29 10° 333° (NNW) 2,472 4.5 -11.9°
Maximum altitude 22:46:11 83° 244° (WSW) 867 2.3 -12.7°
Drops below altitude 10° 22:51:57 10° 155° (SSE) 2,499 4.9 -13.4°
Sets 22:54:25 0° 154° (SSE) 3,440 5.7 -13.7°
